Regional Weather Roundup
Issued by NWS

Home | Current Version | Previous Version | Text Only | Print | Product List | Glossary Off
Versions: 1 2 3 4 5 6 7 8 9 10 11 12 13 14 15 16 17 18 19 20 21 22 23 24 25 26 27 28 29 30 31 32 33 34 35 36 37 38 39 40 41 42 43 44 45 46 47 48 49 50

000
ASUS43 KOAX 181210
RWRNE

WEATHER ROUNDUP FOR NEBRASKA
NATIONAL WEATHER SERVICE OMAHA NE
700 AM CDT THU SEP 18 2014

NOTES: SATELLITE DATA IS BEING USED TO AUGMENT CLOUD COVER ABOVE
       12000 FEET.
       "FAIR" INDICATES FEW OR NO CLOUDS BELOW 12,000 FEET WITH NO
       SIGNIFICANT WEATHER AND/OR OBSTRUCTIONS TO VISIBILITY.

  * THESE STATIONS DO NOT REPORT WEATHER SUCH AS RAIN...SNOW OR FOG.

NEZ001>004-019>022-054>056-181300-
NEBRASKA PANHANDLE

CITY           SKY/WX    TMP DP  RH WIND       PRES   REMARKS
SCOTTSBLUFF    FOG       54  54 100 SW3       29.95S VSB 1/4
6HR MIN TEMP:  52; 6HR MAX TEMP:  59;

ALLIANCE       CLOUDY    62  60  93 S12       29.94S
6HR MIN TEMP:  58; 6HR MAX TEMP:  64;

CHADRON        CLEAR     48  47  96 W5        29.91S
6HR MIN TEMP:  47; 6HR MAX TEMP:  60;

KIMBALL        CLEAR     49  42  76 W8        30.00R
SIDNEY         FOG       57  56  96 CALM      29.99R VSB<1/4
6HR MIN TEMP:  55; 6HR MAX TEMP:  60;

$$

NEZ057>060-069>072-079>082-181300-
SOUTHWEST NEBRASKA

CITY           SKY/WX    TMP DP  RH WIND       PRES   REMARKS
NORTH PLATTE   FOG       59  58  96 SE7       29.97R VSB 1/2
6HR MIN TEMP:  57; 6HR MAX TEMP:  61;

IMPERIAL       FOG       64  63  96 SE7       29.96R VSB 1/2
6HR MIN TEMP:  64; 6HR MAX TEMP:  66;

LEXINGTON      CLOUDY    61  60  97 SE9       29.98R FOG
MCCOOK         FOG       63  62  97 E7        29.95S VSB 3/4
6HR MIN TEMP:  61; 6HR MAX TEMP:  64;

OGALLALA       CLOUDY    65  64  99 E3        29.96S FOG
$$

NEZ005>010-023>029-035>040-094-181300-
NORTH CENTRAL NEBRASKA

CITY           SKY/WX    TMP DP  RH WIND       PRES   REMARKS
VALENTINE      CLOUDY    61  60  97 S6        29.94S FOG
6HR MIN TEMP:  58; 6HR MAX TEMP:  61;

AINSWORTH      FOG       59  59 100 S12       29.95S VSB 3/4
BROKEN BOW     FOG       61  60  97 S7        29.97S VSB 1/4
6HR MIN TEMP:  51; 6HR MAX TEMP:  61;

O`NEILL        CLEAR     60  59  98 S8        29.97R
ORD            FOG       59  58  96 S8        29.96R VSB 1/2
6HR MIN TEMP:  51; 6HR MAX TEMP:  60;

THEDFORD       CLOUDY    60  60  99 S12       29.97S VSB 1/2
$$

NEZ041-046>049-061>064-073>077-083>087-181300-
SOUTH CENTRAL NEBRASKA

CITY           SKY/WX    TMP DP  RH WIND       PRES   REMARKS
GRAND ISLAND   FOG       61  60  97 SE8       29.97S VSB 3/4
6HR MIN TEMP:  53; 6HR MAX TEMP:  62;

AURORA         FOG       60  60 100 SE5       29.97S VSB 1/4
HASTINGS       FOG       61  59  93 SE9       29.97S VSB 3/4
6HR MIN TEMP:  61; 6HR MAX TEMP:  64;

HEBRON         CLOUDY    63  61  93 E7        29.97R FOG
HOLDREGE       CLOUDY    61  59  94 SE5       29.97R FOG
KEARNEY *      CLOUDY    61  59  94 SE10      29.98R
YORK           FOG       61  61 100 SE7       29.98S VSB 1/2
$$

NEZ011>018-030>034-042>045-181300-
NORTHEAST NEBRASKA

CITY           SKY/WX    TMP DP  RH WIND       PRES   REMARKS
NORFOLK        PTCLDY    59  58  96 E7        29.98R
6HR MIN TEMP:  57; 6HR MAX TEMP:  62;

ALBION         CLOUDY    60  58  94 SE5       29.99R FOG
BLAIR          CLEAR     58  57  94 E7        29.99S FOG
COLUMBUS *     CLOUDY    61  57  88 E5        29.99S
FREMONT        PTCLDY    59  58  96 CALM      30.00R FOG
TEKAMAH        PTCLDY    57  55  93 E5        30.00S
6HR MIN TEMP:  54; 6HR MAX TEMP:  58;

WAYNE          PTCLDY    58  57  96 S6        30.00R FOG
$$

NEZ050>053-065>068-078-088>093-181300-
SOUTHEAST NEBRASKA

CITY           SKY/WX    TMP DP  RH WIND       PRES   REMARKS
LINCOLN        CLOUDY    63  61  93 SE8       30.00R FOG
6HR MIN TEMP:  62; 6HR MAX TEMP:  68;

OMAHA EPPLEY   CLOUDY    60  57  89 SE10      30.01R FOG
6HR MIN TEMP:  59; 6HR MAX TEMP:  65;

BEATRICE       CLOUDY    63  62  96 SE9       29.98R
FALLS CITY     CLOUDY    62  62 100 E5        29.99R FOG
6HR MIN TEMP:  60; 6HR MAX TEMP:  64;

NEBRASKA CITY  CLOUDY    62  60  94 SE7       30.00R FOG
PLATTSMOUTH    CLOUDY    60  58  94 SE8       30.01R FOG
$$

NEZ044-045-051>053-067-181300-
OMAHA AREA

CITY           SKY/WX    TMP DP  RH WIND       PRES   REMARKS
OMAHA EPPLEY   CLOUDY    60  57  89 SE10      30.01R FOG
6HR MIN TEMP:  59; 6HR MAX TEMP:  65;

BLAIR          CLEAR     58  57  94 E7        29.99S FOG
FREMONT        PTCLDY    59  58  96 CALM      30.00R FOG
MILLARD        MOCLDY    60  59  96 SE5       30.00R FOG
OFFUTT AFB     CLOUDY    60  60 100 E10       30.00R
PLATTSMOUTH    CLOUDY    60  58  94 SE8       30.01R FOG
WAHOO          FOG       55  53  92 SE3       29.99S VSB 1/4
$$



USA.gov is the U.S. government's official web portal to all federal, state and local government web resources and services.